Location: Devore Heights
(34.2372°N, 117.4156°W)
Time: 22:32:27
(UTC+00:00)

Transit 4A - Pass Details

Date: 15 September 2024
Orbit: 864 x 978 km, 66.8° (Epoch: 13 October)

Event Time Altitude Azimuth Distance (km) Brightness Sun altitude
Rises 18:55:19 0° 343° (NNW) 3,607 10.6 56.4°
Reaches altitude 10° 18:58:07 10° 352° (N) 2,677 10.1 56.6°
Maximum altitude 19:03:43 34° 56° (NE) 1,548 9.4 57.0°
Drops below altitude 10° 19:09:23 10° 119° (ESE) 2,713 10.8 57.3°
Sets 19:12:14 0° 129° (SE) 3,663 11.4 57.5°
